THOR ABLESTAR DEB, 463

Orbit data source: Space-Track

THOR ABLESTAR DEB, 463 is space debris in LEO originally from a launch on Thu, 29 Jun 1961 UTC launched from the Air Force Eastern Test Range (AFETR). Debris objects in space refer to the collection of defunct objects orbiting the Earth. Examples of debris include non-operational satellites, rocket bodies, and fragments generated from explosions, collisions, or faulty payload assembly.

Loading next visibility...
THOR ABLESTAR DEB details
Identifier
463, 1961-015EZ
Orbit
LEO
Last TLE update1 day ago
Origin
Flag of USUSAF SSD (US)
ManufacturerUnknown
MissionSpacecraft
Bus & MotorUnknown
MassUnknown
Launch date (UTC)
1961-06-29 (64 years ago)
Launch vehicleUnknown
Launch site
Air Force Eastern Test Range (AFETR)
Object type
Payload
Rocket body
Debris
Shape & HBRUnknown
Radar Cross SectionSmall (<0.1 m²)

Expand to show TLE details & history

TLE from 1 day ago
0 THOR ABLESTAR DEB
1 00463U 61015EZ  25043.43941509  .00004775  00000-0  11498-2 0  9993
2 00463  66.7690 300.2701 0052273 272.5931  86.9196 14.53275371297858
Epoch: 2025-02-12T10:32Z
Definitive object data (Epoch: 2025-02-12T10:32:45.463Z)
Latitude-0.00007°
Longitude-0.64922°
Altitude715.307 km
Speed7.499 km/s
True Right ascension20h 01m 04s
True Declination0° 00' 00"
Sunlit
Object was in daylight at TLE epoch
Visualization TLE readout
Latitude-11.61178°
Longitude-178.88388°
Altitude712.165 km
Speed7.503 km/s
Apparent Right ascension07h 17m 51s
Apparent Declination-25° 38' 10"
Sunlit
Object is in full shadow
Visualization observer readout
Local Sidereal Time18:05:57
Azimuth308.133° NW
Elevation-69.284°
Doppler factor1
Orbital elements
Apogee altitude750.389 km
Perigee altitude676.251 km
Semi-major axis7,091.457 km
Eccentricity0.0052273
Inclination66.769°
RAAN300.2701°
Arg. of periapsis272.5931°
True anomaly87.51794°
Mean anomaly86.9196°
Eccentric anomaly87.21875°
Mean motion3.63446 °/min
BSTAR0.0011498
Orbital period99.05 mins
Loading maneuver chart data...

THOR ABLESTAR DEB Visibility forecast

Observer location: undefined°, undefined

Span
Click to sort rows by Start time (UTC) header in descending order
Start Az.
Max El. time (UTC)
Max El. Az.
Max El.
End time (UTC)
End Az.
9 mins2025-02-13 18:02:44.867Z186.916° SSW2025-02-13 18:06:44.867Z133.115° SE37.024°2025-02-13 18:11:44.867Z40.509° NE
6 mins2025-02-13 19:46:44.867Z273.275° WNW2025-02-13 19:49:44.867Z319.918° NNW21.161°2025-02-13 19:52:44.867Z359.31° N
7 mins2025-02-14 02:43:44.867Z356.639° N2025-02-14 02:46:44.867Z41.912° NE27.7°2025-02-14 02:50:44.867Z108.842° ESE
7 mins2025-02-14 04:25:44.867Z303.273° NW2025-02-14 04:28:44.867Z254.093° W28.679°2025-02-14 04:32:44.867Z190.724° SSW
|